Weather Roundup
Issued by NWS Chicago, IL

Home | Current Version | Previous Version | Text Only | Print | Product List | Glossary On
Versions: 1 2 3 4 5 6 7 8 9 10 11 12 13 14 15 16 17 18 19 20 21 22 23 24 25 26 27 28 29 30 31 32 33 34 35 36 37 38 39 40 41 42 43 44 45 46 47 48 49 50
856
NZUS59 KLOT 202012
HRRLOT

CHICAGO AREA WEATHER ROUNDUP
NATIONAL WEATHER SERVICE CHICAGO/ROMEOVILLE IL
200 PM CST MON FEB 20 2017

NOTE: "FAIR" INDICATES FEW OR NO CLOUDS BELOW 12,000 FEET WITH NO
SIGNIFICANT WEATHER AND/OR OBSTRUCTIONS TO VISIBILITY.

* THESE STATIONS ARE NOT UNDER NWS QUALITY CONTROL. THEY ALSO MAY NOT
  REPORT WEATHER SUCH AS PRECIPITATION OR FOG.

ILZ005-006-012>014-019>023-202100-
NORTHEAST ILLINOIS

CITY           SKY/WX    TMP DP  RH WIND       PRES   REMARKS
OHARE          CLOUDY    69  48  47 S18       30.00F
MIDWAY         CLOUDY    68  46  45 S15G23    30.02F
AURORA         MOSUNNY   70  52  52 S20G29    29.99F
LANSING*       PTSUNNY   67  50  55 S14       30.04F
JOLIET*        MOSUNNY   70  52  53 S15G23    30.01F
WAUKEGAN       CLOUDY    54  43  66 SE15G21   30.01F HAZE
DUPAGE AIRPORT MOSUNNY   68  48  48 S20G26    29.99F
WHEELING       PTSUNNY   68  46  45 S17G24    30.02F
KANKAKEE*      MOSUNNY   68  49  49 SE17      30.03F
MORRIS*        MOSUNNY   70  52  52 S21G28    29.98F
LEWIS AIRPORT* MOSUNNY   68  54  59 S21G28    30.00F
NORTHERLY ISL    N/A     52  40  63 E7          N/A
$$

WIZ051-052-058>065-066-070>072-202100-
SOUTHEAST WISCONSIN

CITY           SKY/WX    TMP DP  RH WIND       PRES   REMARKS
MILWAUKEE      PTSUNNY   56  44  64 SE15      30.03F
KENOSHA*       CLOUDY    57  45  64 SE17      30.02F HAZE
RACINE*        CLOUDY    52  42  69 SE12      30.04F
WAUKESHA       PTSUNNY   55  45  67 SE16      30.00F
WEST BEND      CLOUDY    50  45  81 SE12      30.00F
$$

INZ001>003-010>013-019-020-202100-
NORTHWEST INDIANA

CITY           SKY/WX    TMP DP  RH WIND       PRES   REMARKS
GARY*          PTSUNNY   68  43  40 SE14G26   30.05F
MICHIGAN CITY* NOT AVBL
RENSSELAER*    NOT AVBL
VALPARAISO     MOSUNNY   67  45  45 S14G23    30.07F
$$

LMZ740>746-202100-
SOUTHERN LAKE MICHIGAN

STATION/POSITION TIME  SKY/WX   TEMP WIND        PRES    VSBY
                                AIR  DIR/SP/G
                 (UTC)          (F)  (DEG/KT/KT) (MB)    (MI)
HARRISON CRIB    1940            56  140/ 20/ 22   N/A
BURNHAM HARBOR   2000            51   80/  2/  6   N/A
CALUMET HARBOR   1948            66  150/ 12/ 19 1016.5F
BURNS HARBOR     1940            65  170/ 15/ 21 1018.3F
MICHIGAN CITY    1940            64  120/ 14/ 17   N/A
$$

ABBREVIATIONS USED IN REMARKS
   TC - TEMPERATURE IN CELSIUS
  WCI - WIND CHILL INDEX
   HX - HEAT INDEX
  VSB - VISIBILITY
$$




USA.gov is the U.S. government's official web portal to all federal, state and local government web resources and services.